User: anonymous
Location: Bridgewater Hill Observatory
(43.5992°N, 72.6989°W)
Time: 03:58:45
(UTC-04:00)
Language:

Cosmos 1452 Rocket - Orbit

View from above orbital plane
View from above orbital plane
View from above satellite
View from above satellite

Ground track
Ground track

The orbit data is extracted from the following two-line orbital elements,

1 13992U 83031B   14293.63265262  .00000329  00000-0  12261-3 0  5423
2 13992 074.0542 346.9649 0005493 223.5852 248.0249 14.35792838649498
Epoch (UTC): 20 October 2014 15:11:01
Eccentricity: 0.0005493
inclination: 74.0542°
perigee height: 768 km
apogee height: 776 km
right ascension of ascending node: 346.9649°
argument of perigee: 223.5852°
revolutions per day: 14.35792838
mean anomaly at epoch: 248.0249°
orbit number at epoch: 64949

The dashed part of the orbit path shows where the satellite is in the earth's shadow,  

DLR